Location: Ash Swamp
(41.5170°N, 74.6157°W)
Time: 01:18:36
(UTC+00:00)

Lacrosse 5 rocket - Visible Passes

Search period start: 24 October 2020 00:00
Search period end: 03 November 2020 00:00
Orbit: 460 x 635 km, 57.0° (Epoch: 23 October)

Date Brightness Start Highest point End Pass type
(mag) Time Alt. Az. Time Alt. Az. Time Alt. Az.
24 Oct 2.3 09:32:29 24° S 09:34:08 39° SE 09:37:37 10° ENE visible
25 Oct 1.5 09:27:48 50° SSE 09:28:16 55° SE 09:31:55 10° NE visible
26 Oct 1.3 09:22:55 63° ENE 09:22:55 63° ENE 09:26:10 10° NE visible
27 Oct 2.1 09:17:52 39° NE 09:17:52 39° NE 09:20:22 10° NE visible
27 Oct 3.1 10:54:09 10° WNW 10:56:22 15° NNW 10:58:37 10° NNE visible
28 Oct 2.9 09:12:43 25° NNE 09:12:43 25° NNE 09:14:31 10° NE visible
28 Oct 3.2 10:48:58 10° NW 10:50:44 13° NNW 10:52:32 10° N visible
29 Oct 3.4 09:07:27 18° NNE 09:07:27 18° NNE 09:08:38 10° NNE visible
29 Oct 3.4 10:43:55 10° NW 10:45:08 11° NNW 10:46:22 10° N visible
30 Oct 3.8 09:02:07 13° NNE 09:02:07 13° NNE 09:02:43 10° NNE visible
31 Oct 4.1 08:56:43 10° NNE 08:56:43 10° NNE 08:56:47 10° NNE visible
